Date String (YYYY-MM-DD hh:mm:ss) UTC,Instrument flags,Ambient pressure (hPa),Sample flow (lpm),Bypass flow (lpm),Sample temperature (°C),Ambient temperature (°C),ASC tube jacket temperature (°C),LED temperature (°C),Box temperature (°C),Sample RH (%),Span deviation,Mass concentration (μg/m³),Mass concentration (μg/m³),Mass concentration (μg/m³)
DateTimeUTC,F1_M11,P_M11,Q1_M11,Q2_M11,T1_M11,T2_M11,T3_M11,T4_M11,T5_M11,U1_M11,ZSPAN_M11,X2_M11,X0_M11,X1_M11
2022-10-02 23:00:00,,0828.0,4.99,0.00,29.7,28.7,00.0,38.3,31.7,23.3,0000.0,0002.72,0004.23,0002.34
2022-10-02 23:01:00,,0827.9,5.00,0.00,29.7,28.8,00.0,38.3,31.7,22.8,0000.0,0002.75,0004.29,0002.36
2022-10-02 23:02:00,,0827.9,5.00,0.00,29.8,28.9,00.0,38.4,31.7,22.5,0000.0,0002.76,0004.28,0002.37
2022-10-02 23:03:00,,0827.9,4.99,0.00,29.8,29.0,00.0,38.4,31.8,22.4,0000.0,0002.74,0004.15,0002.37
2022-10-02 23:04:00,,0827.9,5.01,0.00,29.9,28.6,00.0,38.4,31.8,22.2,0000.0,0002.71,0004.00,0002.35
2022-10-02 23:05:00,,0827.9,5.00,0.00,29.8,27.2,00.0,38.4,31.6,22.3,0000.0,0002.70,0004.50,0002.34
2022-10-02 23:06:00,,0827.9,4.99,0.00,29.8,26.8,00.0,38.4,31.6,22.3,0000.0,0002.68,0005.12,0002.32
2022-10-02 23:07:00,,0827.9,4.99,0.00,29.7,26.9,00.0,38.4,31.5,22.6,0000.0,0002.62,0004.88,0002.31
2022-10-02 23:08:00,,0828.0,5.01,0.00,29.7,27.2,00.0,38.3,31.4,22.7,0000.0,0002.61,0004.81,0002.31
2022-10-02 23:09:00,,0828.0,5.00,0.00,29.7,27.5,00.0,38.3,31.4,22.4,0000.0,0002.62,0004.81,0002.30
2022-10-02 23:10:00,,0828.0,5.00,0.00,29.6,27.8,00.0,38.3,31.5,22.4,0000.0,0002.63,0004.74,0002.30
2022-10-02 23:11:00,,0827.9,4.99,0.00,29.7,28.1,00.0,38.3,31.5,22.8,0000.0,0002.65,0004.78,0002.30
2022-10-02 23:12:00,,0827.9,5.01,0.00,29.7,28.2,00.0,38.3,31.6,22.8,0000.0,0002.66,0004.79,0002.29
2022-10-02 23:13:00,,0827.9,4.99,0.00,29.7,28.4,00.0,38.3,31.6,22.7,0000.0,0002.68,0004.94,0002.30
2022-10-02 23:14:00,,0827.9,5.00,0.00,29.7,28.5,00.0,38.3,31.7,22.7,0000.0,0002.66,0004.90,0002.29
2022-10-02 23:15:00,,0828.0,4.99,0.00,29.7,28.6,00.0,38.4,31.7,22.9,0000.0,0002.70,0004.96,0002.30
2022-10-02 23:16:00,,0828.0,5.01,0.00,29.8,28.7,00.0,38.4,31.7,23.1,0000.0,0002.75,0004.42,0002.31
2022-10-02 23:17:00,,0827.9,5.00,0.00,29.8,28.8,00.0,38.4,31.8,22.9,0000.0,0002.78,0003.95,0002.33
2022-10-02 23:18:00,,0827.9,5.01,0.00,29.8,28.8,00.0,38.4,31.8,22.8,0000.0,0002.83,0004.28,0002.35
2022-10-02 23:19:00,,0828.0,5.00,0.00,29.9,27.7,00.0,38.4,31.7,23.0,0000.0,0002.82,0004.28,0002.37
2022-10-02 23:20:00,,0828.0,5.00,0.00,29.8,26.8,00.0,38.4,31.6,23.0,0000.0,0002.84,0004.77,0002.39
2022-10-02 23:21:00,,0828.0,5.00,0.00,29.8,26.8,00.0,38.4,31.5,22.8,0000.0,0002.88,0005.88,0002.41
2022-10-02 23:22:00,,0828.0,5.00,0.00,29.7,27.1,00.0,38.4,31.4,22.9,0000.0,0002.87,0006.68,0002.42
2022-10-02 23:23:00,,0828.0,4.99,0.00,29.7,27.3,00.0,38.3,31.4,23.4,0000.0,0002.88,0007.51,0002.43
2022-10-02 23:24:00,,0828.0,5.00,0.00,29.6,27.6,00.0,38.3,31.4,24.5,0000.0,0002.88,0007.72,0002.44
2022-10-02 23:25:00,,0827.9,5.00,0.00,29.6,27.9,00.0,38.3,31.5,23.9,0000.0,0002.94,0007.79,0002.45
2022-10-02 23:26:00,,0828.0,5.00,0.00,29.7,28.1,00.0,38.3,31.5,23.7,0000.0,0002.95,0007.80,0002.46
2022-10-02 23:27:00,,0827.9,4.99,0.00,29.7,28.3,00.0,38.3,31.6,23.2,0000.0,0002.88,0007.71,0002.46
2022-10-02 23:28:00,,0827.9,5.01,0.00,29.7,28.4,00.0,38.3,31.6,23.1,0000.0,0002.87,0007.68,0002.45
2022-10-02 23:29:00,,0828.0,4.99,0.00,29.7,28.5,00.0,38.3,31.7,22.7,0000.0,0002.85,0007.56,0002.42
2022-10-02 23:30:00,,0828.0,5.02,0.00,29.7,28.6,00.0,38.4,31.7,22.5,0000.0,0002.86,0007.56,0002.41
2022-10-02 23:31:00,,0828.0,4.98,0.00,29.8,28.7,00.0,38.4,31.7,22.7,0000.0,0002.89,0007.37,0002.41
2022-10-02 23:32:00,,0828.0,5.01,0.00,29.8,28.8,00.0,38.4,31.7,22.6,0000.0,0002.84,0006.64,0002.40
2022-10-02 23:33:00,,0827.9,4.99,0.00,29.8,28.8,00.0,38.4,31.8,22.3,0000.0,0002.82,0005.47,0002.39
2022-10-02 23:34:00,,0827.9,5.01,0.00,29.9,27.7,00.0,38.4,31.7,22.5,0000.0,0002.83,0004.79,0002.39
2022-10-02 23:35:00,,0827.9,5.01,0.00,29.8,26.3,00.0,38.4,31.5,22.3,0000.0,0002.82,0004.12,0002.38
2022-10-02 23:36:00,,0828.0,5.01,0.00,29.7,26.2,00.0,38.3,31.4,22.7,0000.0,0002.78,0004.05,0002.37
2022-10-02 23:37:00,,0828.0,5.00,0.00,29.6,26.4,00.0,38.3,31.3,22.9,0000.0,0002.73,0003.94,0002.36
2022-10-02 23:38:00,,0828.0,4.99,0.00,29.5,26.7,00.0,38.3,31.2,23.2,0000.0,0002.74,0004.01,0002.35
2022-10-02 23:39:00,,0827.9,4.98,0.00,29.5,27.0,00.0,38.2,31.3,23.2,0000.0,0002.74,0004.02,0002.34
2022-10-02 23:40:00,,0827.9,4.99,0.00,29.5,27.4,00.0,38.2,31.3,23.1,0000.0,0002.76,0004.05,0002.35
2022-10-02 23:41:00,,0827.9,5.01,0.00,29.5,27.6,00.0,38.2,31.3,23.3,0000.0,0002.77,0004.07,0002.37
2022-10-02 23:42:00,,0827.9,5.00,0.00,29.5,27.8,00.0,38.2,31.4,23.5,0000.0,0002.74,0004.36,0002.37
2022-10-02 23:43:00,,0828.0,4.99,0.00,29.5,28.0,00.0,38.2,31.4,22.8,0000.0,0002.73,0004.40,0002.37
2022-10-02 23:44:00,,0827.9,5.01,0.00,29.5,28.2,00.0,38.2,31.4,22.6,0000.0,0002.72,0004.48,0002.35
2022-10-02 23:45:00,,0827.9,5.00,0.00,29.6,28.3,00.0,38.2,31.5,22.8,0000.0,0002.73,0004.47,0002.34
2022-10-02 23:46:00,,0828.0,5.01,0.00,29.6,28.5,00.0,38.2,31.5,23.0,0000.0,0002.70,0004.37,0002.34
2022-10-02 23:47:00,,0827.9,5.00,0.00,29.6,28.6,00.0,38.3,31.6,22.8,0000.0,0002.69,0004.37,0002.34
2022-10-02 23:48:00,,0828.0,5.00,0.00,29.7,28.6,00.0,38.3,31.6,22.6,0000.0,0002.68,0004.29,0002.33
2022-10-02 23:49:00,,0827.9,5.01,0.00,29.7,28.7,00.0,38.3,31.7,22.6,0000.0,0002.66,0004.20,0002.33
2022-10-02 23:50:00,,0828.0,4.98,0.00,29.7,28.8,00.0,38.3,31.7,22.4,0000.0,0002.64,0004.45,0002.34
2022-10-02 23:51:00,,0828.0,5.01,0.00,29.8,28.8,00.0,38.4,31.8,22.3,0000.0,0002.64,0004.83,0002.35
2022-10-02 23:52:00,,0828.0,4.99,0.00,29.8,27.9,00.0,38.4,31.7,22.3,0000.0,0002.63,0004.75,0002.35
2022-10-02 23:53:00,,0828.0,4.99,0.00,29.7,26.4,00.0,38.3,31.5,22.3,0000.0,0002.64,0004.40,0002.36
2022-10-02 23:54:00,,0828.0,5.01,0.00,29.7,26.0,00.0,38.3,31.4,22.4,0000.0,0002.69,0004.44,0002.36
2022-10-02 23:55:00,,0828.0,5.00,0.00,29.6,26.2,00.0,38.2,31.2,22.5,0000.0,0002.72,0004.35,0002.39
2022-10-02 23:56:00,,0828.0,5.00,0.00,29.5,26.5,00.0,38.2,31.2,23.0,0000.0,0002.72,0004.27,0002.41
2022-10-02 23:57:00,,0828.0,5.01,0.00,29.4,26.9,00.0,38.2,31.2,23.3,0000.0,0002.76,0004.35,0002.44
2022-10-02 23:58:00,,0827.9,5.00,0.00,29.4,27.2,00.0,38.1,31.2,23.3,0000.0,0002.79,0004.41,0002.47
2022-10-02 23:59:00,,0828.0,5.01,0.00,29.4,27.4,00.0,38.1,31.3,23.2,0000.0,0002.83,0004.52,0002.48
